FW1568 Weather Reports


time (UTC)temp
F
wind
direction
speed
knots
gust
knots
rain 1hr
in
rain 24hr
in
rain mn
in
humidity
%
barometer
mb
20260505090035 42 196 2.6 8.7 0.00 0.02 0.00 84 1010.6
20260505084513 42 214 1.7 7.8 0.00 0.02 0.00 83 1010.2
20260505083014 42 197 3.5 7.8 0.00 0.02 0.00 83 1010.0
20260505081513 42 217 2.6 6.1 0.00 0.02 0.00 82 1009.9
20260505080006 43 205 4.3 7.8 0.00 0.04 0.00 81 1009.6
20260505074504 44 190 1.7 7.0 0.00 0.04 0.00 81 1009.4
20260505073002 43 222 2.6 8.7 0.00 0.04 0.00 83 1009.1
20260505071603 43 203 2.6 7.8 0.00 0.04 0.00 83 1009.0
20260505070058 43 224 1.7 7.0 0.00 0.06 0.00 83 1008.7
20260505064554 43 210 2.6 6.1 0.00 0.06 0.00 82 1008.5
20260505063052 43 215 0.9 3.5 0.00 0.06 0.00 81 1008.2
20260505061554 43 214 0.9 4.3 0.00 0.06 0.00 81 1008.0
20260505060046 43 215 0.9 5.2 0.00 0.07 0.00 80 1007.6
20260505054601 44 204 2.6 7.0 0.00 0.07 0.00 79 1007.3
20260505053050 44 202 1.7 6.1 0.00 0.07 0.00 78 1006.9
20260505051539 44 206 0.9 7.0 0.00 0.07 0.00 77 1007.0
20260505041529 46 206 1.7 4.3 0.00 0.09 0.00 74 1006.1
20260505040027 47 223 2.6 8.7 0.00 0.09 0.00 73 1005.8
20260505034523 47 221 4.3 7.8 0.00 0.09 0.00 72 1005.5
20260505033022 48 217 4.3 13.0 0.00 0.09 0.00 72 1005.1
20260505031537 48 217 4.3 9.6 0.00 0.09 0.00 72 1004.8
20260505030015 49 204 4.3 9.6 0.00 0.10 0.09 71 1004.7
20260505024522 48 212 7.0 12.2 0.00 0.10 0.09 71 1004.6
20260505023013 48 200 5.2 11.3 0.00 0.10 0.09 71 1004.5
20260505021517 48 239 2.6 12.2 0.00 0.10 0.09 70 1004.4
20260505020025 48 205 5.2 11.3 0.00 0.11 0.09 69 1004.2
20260505014510 49 170 4.3 13.0 0.00 0.11 0.09 69 1004.1
20260505013009 50 214 2.6 8.7 0.00 0.11 0.09 69 1004.2
20260505011509 51 230 3.5 13.0 0.00 0.11 0.09 68 1004.2
20260505010009 51 231 5.2 13.9 0.00 0.16 0.09 66 1004.3
20260505004519 51 220 3.5 11.3 0.00 0.16 0.09 66 1004.1
20260505003006 51 219 4.3 10.4 0.00 0.16 0.09 64 1004.2
20260505001506 51 227 5.2 18.2 0.00 0.16 0.09 63 1003.7
20260505000007 50 220 5.2 10.4 0.00 0.32 0.09 61 1003.5
20260504234503 50 201 2.6 7.8 0.00 0.32 0.09 62 1003.2
20260504233106 50 200 1.7 7.8 0.00 0.32 0.09 62 1002.9
20260504231559 51 196 4.3 9.6 0.00 0.32 0.09 60 1002.7
20260504230107 51 212 3.5 11.3 0.00 0.48 0.09 60 1002.6
20260504224556 52 206 2.6 8.7 0.00 0.48 0.09 59 1002.4
20260504223103 53 242 4.3 10.4 0.00 0.48 0.09 56 1002.4
20260504221602 53 262 4.3 18.2 0.00 0.48 0.09 55 1002.1
20260504220058 53 266 3.5 12.2 0.00 0.66 0.09 56 1002.1
20260504214553 53 188 3.5 15.6 0.00 0.66 0.09 55 1002.1
20260504213050 54 173 5.2 18.2 0.00 0.66 0.09 54 1001.8
20260504211549 53 206 3.5 13.9 0.00 0.66 0.09 55 1001.9
20260504210051 54 209 6.1 13.9 0.00 0.72 0.09 53 1001.7
20260504204545 54 214 3.5 20.9 0.00 0.72 0.09 54 1001.5
20260504203047 54 218 6.1 15.6 0.00 0.72 0.09 54 1000.8
20260504201541 54 219 6.1 17.4 0.00 0.72 0.09 56 1000.7
20260504200039 54 306 4.3 14.8 0.00 0.72 0.09 59 1000.4
20260504194538 54 231 7.0 15.6 0.00 0.72 0.09 60 1000.1
20260504193034 54 228 4.3 17.4 0.00 0.72 0.09 63 999.8
20260504191530 52 266 5.2 22.6 0.00 0.72 0.09 64 999.6
20260504190028 51 298 3.5 23.5 0.00 0.74 0.09 68 999.4
20260504184524 50 302 4.3 17.4 0.00 0.74 0.09 70 999.2
20260504183022 50 297 3.5 19.1 0.00 0.74 0.09 72 999.1
20260504181522 47 223 6.1 17.4 0.00 0.74 0.09 75 998.8
20260504180018 47 202 4.3 13.9 0.00 0.74 0.09 76 998.7
20260504174515 47 220 5.2 15.6 0.00 0.74 0.09 77 998.5
20260504173012 47 261 2.6 18.2 0.00 0.74 0.09 78 998.2
20260504171509 45 191 3.5 18.2 0.00 0.74 0.09 81 998.0
20260504170106 44 294 3.5 19.1 0.00 0.74 0.09 82 997.9
20260504160105 43 243 6.1 19.1 0.00 0.74 0.09 83 996.4